[[{"header":{"parameterUnit":"m.s-1","parameterCategory":1,"la1":30.2991,"la2":30.254,"lo1":-89.0895,"lo2":-89.0444,"dy":0.0017,"dx":0.0017,"nx":28,"ny":28,"refTime":"2023-08-14T21:00:00:Z","depth":0,"parameterNumber":2,"parameterNumberName":"U-component_of_WINDS"},"data":[0,0,0,0,0,0,0,0,0,0,0,0,0,0,0,0,0,0,0,0,0,0,0,0,0,0,0,0,0,0,0,0,0,0,0,0,0,0,0,0,0,0,0,0,0,0,0,0,0,0,0,0,0,0,0,0,0,0,1.3087,1.3089,0,1.3232,1.3234,1.3235,1.3291,1.329,1.329,1.329,1.3436,1.344,1.3444,0,0,0,0,0,0,0,0,0,0,0,0,0,1.2856,1.286,1.3087,1.3089,1.3091,1.3232,1.3234,1.3236,1.3291,1.329,1.329,1.3289,1.3434,1.3439,1.3444,0,0,0,0,0,0,0,0,0,0,0,0,0,1.2974,1.2861,1.3087,1.3135,1.3141,1.3231,1.3234,1.3236,1.3291,1.329,1.329,1.3289,1.3433,1.3439,1.3445,1.3497,0,0,1.3465,1.3467,0,0,0,0,0,0,0,0,1.2967,1.2982,1.3126,1.3132,1.3139,1.3243,1.3206,1.3323,1.3291,1.3234,1.329,1.3289,1.3372,1.3383,1.3412,1.3504,1.351,1.3465,1.3469,1.3472,1.3474,0,0,0,0,0,0,0,1.2959,1.2976,1.3144,1.3128,1.3136,1.3149,1.3165,1.3228,1.3304,1.3239,1.3243,1.326,1.3375,1.3405,1.3415,1.3512,1.3465,1.3471,1.3475,1.3477,1.3653,1.3654,0,0,0,0,0,0,1.2943,1.2969,1.314,1.3149,1.305,1.3154,1.3172,1.321,1.3304,1.3318,1.326,1.3262,1.3395,1.3408,1.3421,1.3487,1.3472,1.3478,1.3481,1.3652,1.3653,1.3654,0,0,0,0,0,0,1.2938,1.2958,1.3134,1.306,1.3084,1.3158,1.3201,1.3213,1.3244,1.332,1.3334,1.3277,1.3395,1.3412,1.3478,1.3493,1.3481,1.3487,1.3651,1.3653,1.3654,1.362,0,0,0,0,0,0,1.2931,1.2955,1.2976,1.306,1.3087,1.3189,1.3202,1.3216,1.3255,1.3258,1.334,1.3353,1.3396,1.3468,1.3484,1.3502,1.3492,1.365,1.3652,1.3653,1.362,1.362,1.362,0,0,0,0,0,1.2922,1.2961,1.2977,1.2998,1.3115,1.319,1.3205,1.3254,1.3256,1.3277,1.3326,1.335,1.3489,1.3474,1.3493,1.3512,1.3649,1.3651,1.3653,1.362,1.362,1.362,0,0,0,0,0,0,1.2876,1.2973,1.2992,1.3059,1.3116,1.3199,1.3227,1.3253,1.331,1.3311,1.3369,1.3386,1.3447,1.3487,1.3468,1.3567,1.3571,1.3576,1.3539,1.354,1.354,1.3529,1.3497,0,0,0,0,0,1.2874,1.2927,1.3008,1.3059,1.3087,1.3152,1.3186,1.3219,1.328,1.3304,1.3358,1.3416,1.3472,1.3508,1.3565,1.3626,1.3644,1.3649,1.3649,1.3649,1.3653,1.3688,1.369,1.366,1.366,1.366,0,0,1.2869,1.2929,1.2959,1.3052,1.31,1.3152,1.3172,1.3227,1.3267,1.3313,1.3378,1.3419,1.3487,1.3551,1.3582,1.3586,1.3665,1.3651,1.365,1.3655,1.369,1.3693,1.3695,1.3662,1.3661,1.3661,0,0,1.2888,1.2939,1.2987,1.3035,1.3107,1.315,1.3162,1.3241,1.3271,1.3337,1.3373,1.342,1.3517,1.3563,1.36,1.3636,1.366,1.3652,1.3652,1.3685,1.3687,1.369,1.3702,1.3706,1.3656,1.3656,1.3656,0,1.2873,1.2955,1.3008,1.3062,1.3101,1.3146,1.3194,1.3238,1.3324,1.335,1.3353,1.3475,1.3524,1.3599,1.3607,1.3636,1.365,1.3643,1.3683,1.3686,1.3689,1.3701,1.3706,1.3655,1.3655,1.3655,1.3655,0,1.2933,1.2989,1.3019,1.3103,1.3145,1.3196,1.3255,1.3292,1.3321,1.3364,1.343,1.3491,1.356,1.358,1.3609,1.3659,1.3659,1.3672,1.3677,1.3689,1.3702,1.3707,1.3653,1.3653,1.3654,1.3654,0,0,1.2927,1.3039,1.3049,1.3087,1.317,1.3214,1.3266,1.3335,1.3365,1.3423,1.3467,1.3548,1.356,1.3601,1.3636,1.3665,1.3689,1.3674,1.3677,1.3674,1.3747,1.3737,1.3741,1.3705,1.3706,1.3707,1.3741,0,1.2956,1.3053,1.3101,1.3176,1.3228,1.3271,1.3317,1.3372,1.3413,1.3462,1.3507,1.3563,1.3575,1.36,1.3631,1.3679,1.3704,1.3678,1.3746,1.3748,1.3728,1.3748,1.3738,1.3767,1.3747,1.3747,1.3748,0,1.3004,1.3062,1.3142,1.3219,1.3243,1.3283,1.3349,1.3396,1.3459,1.3487,1.3533,1.3566,1.3622,1.3622,1.3699,1.368,1.3711,1.3739,1.3741,1.3749,1.3749,1.3756,1.3777,1.3781,1.3756,1.3756,1.3755,0,1.299,1.3089,1.315,1.3181,1.3273,1.33,1.3339,1.3402,1.3439,1.3497,1.3522,1.3584,1.3619,1.3666,1.3715,1.3712,1.3787,1.3792,1.3811,1.381,1.3825,1.3823,1.3851,1.3845,1.3845,1.3845,1.3845,0,1.3018,1.3065,1.3145,1.3183,1.3236,1.3292,1.3343,1.3385,1.3441,1.3486,1.3527,1.3568,1.3631,1.3681,1.3719,1.3777,1.3792,1.3815,1.3825,1.3812,1.3808,1.3832,1.3831,1.3846,1.3846,1.3846,1.3845,0,1.3012,1.3068,1.3137,1.3218,1.3239,1.3275,1.3344,1.3381,1.3424,1.3481,1.3498,1.3565,1.3625,1.3679,1.3758,1.3784,1.3842,1.3855,1.3821,1.3826,1.3842,1.3839,1.3886,1.3894,1.3883,1.3883,1.3883,0,1.3026,1.3064,1.3149,1.3183,1.3221,1.3275,1.3314,1.337,1.3408,1.3483,1.3511,1.3574,1.3627,1.3721,1.3776,1.3837,1.3851,1.3863,1.386,1.3845,1.385,1.3848,1.3851,1.3862,1.3862,1.3862,1.3862,0,1.3045,1.307,1.3126,1.319,1.3236,1.3289,1.3343,1.3368,1.3434,1.3475,1.3537,1.3579,1.366,1.3722,1.3789,1.3828,1.3855,1.3862,1.387,1.3856,1.3835,1.3846,1.3819,1.3861,1.3861,1.3861,1.3861,1.3861,1.3049,1.3084,1.315,1.321,1.3257,1.3307,1.3346,1.3393,1.3447,1.3518,1.3547,1.361,1.3671,1.3764,1.3803,1.3853,1.3858,1.3869,1.3872,1.3874,1.3871,1.3827,1.3865,1.3865,1.3865,1.3865,1.3865,0,1.3069,1.3114,1.3168,1.3244,1.3291,1.3313,1.3375,1.3412,1.3467,1.3523,1.3575,1.3646,1.3706,1.3765,1.3828,1.3856,1.3871,1.3871,1.3869,1.3878,1.3863,1.385,1.3859,1.3859,1.3859,1.3859,1.3859,1.3859,1.3085,1.3146,1.318,1.3264,1.3308,1.337,1.3403,1.3449,1.3494,1.3572,1.3622,1.3661,1.3718,1.3786,1.3841,1.3857,1.3878,1.3875,1.3894,1.3879,1.3879,1.3879,1.3867,1.3879,1.3879,1.3906,1.3906,1.3906]},{"header":{"parameterUnit":"m.s-1","parameterCategory":1,"la1":30.2991,"la2":30.254,"lo1":-89.0895,"lo2":-89.0444,"dy":0.0017,"dx":0.0017,"nx":28,"ny":28,"refTime":"2023-08-14T21:00:00:Z","depth":0,"parameterNumber":3,"parameterNumberName":"V-component_of_WINDS"},"data":[0,0,0,0,0,0,0,0,0,0,0,0,0,0,0,0,0,0,0,0,0,0,0,0,0,0,0,0,0,0,0,0,0,0,0,0,0,0,0,0,0,0,0,0,0,0,0,0,0,0,0,0,0,0,0,0,0,0,6.0949,6.0949,0,6.0906,6.0906,6.0905,6.0805,6.0803,6.0801,6.0799,6.0758,6.0759,6.076,0,0,0,0,0,0,0,0,0,0,0,0,0,6.0947,6.0948,6.0949,6.0949,6.0948,6.0906,6.0906,6.0905,6.0805,6.0803,6.08,6.0798,6.0758,6.0759,6.076,0,0,0,0,0,0,0,0,0,0,0,0,0,6.0931,6.0948,6.0949,6.0893,6.0888,6.0907,6.0906,6.0905,6.0806,6.0803,6.08,6.0797,6.0757,6.0758,6.076,6.083,0,0,6.0764,6.0764,0,0,0,0,0,0,0,0,6.0932,6.0931,6.0902,6.0897,6.0891,6.0858,6.089,6.088,6.0807,6.0837,6.0799,6.0795,6.0794,6.0792,6.0791,6.0829,6.0827,6.0764,6.0765,6.0765,6.0765,0,0,0,0,0,0,0,6.0933,6.0932,6.0932,6.0902,6.0895,6.0871,6.0865,6.0888,6.0834,6.0834,6.0827,6.0823,6.079,6.079,6.0789,6.0826,6.0764,6.0765,6.0766,6.0766,6.092,6.0923,0,0,0,0,0,0,6.0942,6.0934,6.0934,6.0931,6.0904,6.0874,6.0867,6.0872,6.0833,6.0824,6.0826,6.0818,6.0789,6.0788,6.0787,6.0867,6.0765,6.0766,6.0767,6.0916,6.092,6.0924,0,0,0,0,0,0,6.0943,6.0943,6.0935,6.093,6.0928,6.0877,6.0883,6.0872,6.0872,6.0827,6.0817,6.0835,6.0787,6.0785,6.082,6.0864,6.0767,6.0768,6.0912,6.0918,6.0922,6.1027,0,0,0,0,0,0,6.0943,6.0944,6.0969,6.0932,6.0928,6.0968,6.0886,6.0874,6.0874,6.0864,6.0833,6.0825,6.0784,6.0819,6.0822,6.0864,6.0769,6.0908,6.0915,6.0921,6.102,6.1035,6.1049,0,0,0,0,0,6.0943,6.1002,6.0971,6.0972,6.0959,6.0971,6.0969,6.0921,6.0878,6.0904,6.0875,6.0826,6.0859,6.0823,6.0825,6.0869,6.0905,6.0913,6.092,6.1013,6.1032,6.1048,0,0,0,0,0,0,6.1047,6.0995,6.0961,6.1009,6.0995,6.0954,6.0985,6.0942,6.0941,6.0932,6.0873,6.0866,6.0909,6.0893,6.0854,6.0935,6.0874,6.0883,6.0944,6.0962,6.0976,6.0979,6.077,0,0,0,0,0,6.1075,6.1088,6.1043,6.1089,6.1084,6.1036,6.104,6.1003,6.0987,6.0981,6.0954,6.0941,6.0948,6.0954,6.0959,6.1017,6.1009,6.1049,6.1063,6.1075,6.1083,6.1112,6.1129,6.0948,6.0948,6.0948,0,0,6.1133,6.1107,6.1119,6.111,6.1094,6.111,6.1032,6.1052,6.1063,6.0984,6.1014,6.0995,6.0976,6.1023,6.1043,6.1011,6.1131,6.1085,6.1095,6.1095,6.1122,6.1139,6.1154,6.0953,6.0952,6.0952,0,0,6.1248,6.123,6.1266,6.1252,6.123,6.1198,6.1207,6.1172,6.1156,6.1186,6.1127,6.114,6.1154,6.1143,6.1139,6.125,6.1205,6.1254,6.1329,6.1358,6.1373,6.1385,6.1424,6.1439,6.1262,6.1262,6.1262,0,6.1324,6.1344,6.129,6.1314,6.1311,6.124,6.1277,6.1266,6.1248,6.1248,6.1213,6.1229,6.1211,6.1254,6.1281,6.1281,6.129,6.1256,6.1375,6.1387,6.1397,6.1434,6.1449,6.1268,6.1267,6.1267,6.1266,0,6.1438,6.1453,6.1485,6.1467,6.1469,6.1499,6.1451,6.1459,6.1423,6.1395,6.1427,6.1403,6.1401,6.1409,6.1375,6.1448,6.1429,6.1385,6.1322,6.1421,6.1455,6.1468,6.1276,6.1274,6.1272,6.1271,0,0,6.1615,6.1568,6.158,6.1571,6.1542,6.1553,6.1581,6.1578,6.1586,6.1576,6.1597,6.1611,6.157,6.1566,6.153,6.1556,6.1645,6.1509,6.1508,6.1535,6.1724,6.1756,6.1773,6.1616,6.1618,6.162,6.1725,0,6.1722,6.1765,6.1718,6.1771,6.1784,6.1717,6.1741,6.1726,6.1701,6.1709,6.1682,6.1692,6.1638,6.1635,6.1658,6.163,6.1682,6.1622,6.1635,6.1636,6.1641,6.1791,6.1825,6.1925,6.1738,6.174,6.1742,0,6.1852,6.1847,6.1901,6.1868,6.1872,6.1894,6.1888,6.1896,6.1879,6.1858,6.1854,6.181,6.1836,6.1776,6.181,6.1769,6.1773,6.176,6.1763,6.1761,6.1695,6.1793,6.1956,6.1971,6.1762,6.176,6.1759,0,6.1975,6.1982,6.2015,6.2009,6.1972,6.1989,6.1975,6.1954,6.1955,6.195,6.1951,6.195,6.1949,6.1949,6.1907,6.1867,6.1946,6.1882,6.193,6.1932,6.1949,6.1949,6.2115,6.1953,6.1953,6.1953,6.1953,0,6.2099,6.2135,6.207,6.209,6.2128,6.2074,6.2114,6.2092,6.2074,6.209,6.2033,6.2049,6.1992,6.2002,6.1969,6.2002,6.2003,6.1988,6.1978,6.1992,6.1994,6.1993,6.1984,6.1957,6.1956,6.1955,6.1954,0,6.2243,6.2201,6.2232,6.2194,6.2185,6.2215,6.2183,6.22,6.2172,6.2192,6.2194,6.2149,6.2158,6.2116,6.2118,6.2096,6.2146,6.2125,6.2151,6.2145,6.2195,6.2191,6.2365,6.2385,6.2212,6.2214,6.2215,0,6.2324,6.2349,6.2314,6.232,6.2308,6.2318,6.2319,6.2268,6.2271,6.2253,6.2273,6.2277,6.2278,6.2296,6.2264,6.2265,6.2244,6.2305,6.2244,6.2257,6.2244,6.2243,6.2245,6.2318,6.232,6.2321,6.2323,0,6.2472,6.245,6.2453,6.2449,6.2452,6.2446,6.2437,6.2446,6.239,6.2397,6.2405,6.2406,6.2407,6.2413,6.2407,6.2393,6.2349,6.2343,6.2354,6.2368,6.2381,6.2374,6.2185,6.2339,6.2337,6.2336,6.2335,6.2334,6.2586,6.2606,6.2584,6.2589,6.2577,6.257,6.2584,6.2557,6.2562,6.2559,6.2529,6.2543,6.2525,6.2513,6.2503,6.2514,6.2485,6.2502,6.2505,6.251,6.2518,6.2381,6.2513,6.2513,6.2512,6.2512,6.2511,0,6.2731,6.2713,6.2719,6.2707,6.2712,6.267,6.2657,6.2664,6.2677,6.2663,6.2665,6.2674,6.2679,6.2648,6.2649,6.2663,6.2643,6.2665,6.2663,6.2661,6.2545,6.2534,6.2681,6.2681,6.2681,6.2681,6.2681,6.2681,6.2807,6.2837,6.2813,6.2837,6.2819,6.2832,6.2828,6.2822,6.281,6.2823,6.2827,6.2806,6.2785,6.2784,6.2787,6.2778,6.278,6.2809,6.2793,6.2685,6.2669,6.2653,6.2643,6.281,6.2811,6.2908,6.2909,6.291]}]]